Location: Newark
(31.5350°N, 35.0986°E)
Time: 13:33:00
(UTC+00:00)

Transit 4A - Pass Details

Date: 18 October 2019
Orbit: 868 x 976 km, 66.8° (Epoch: 16 November)

Event Time Altitude Azimuth Distance (km) Brightness Sun altitude
Rises 11:03:10 0° 348° (NNW) 3,536 10.6 42.6°
Reaches altitude 10° 11:06:13 10° 2° (N) 2,573 9.9 42.2°
Maximum altitude 11:10:57 24° 55° (NE) 1,741 9.2 41.7°
Drops below altitude 10° 11:15:36 10° 108° (ESE) 2,521 10.1 41.1°
Sets 11:18:32 0° 122° (ESE) 3,447 10.8 40.7°
